• In Netherlands
  • List of Countries
  • For 7 days
  • Water Temperature
  • Satellite Maps
  • Weather Map
  • Weather Widgets
  • user-avatar
    Login

    Hourly Weather Kandi

    Today, 28 April, Friday

    Time Temperature Precipitation Wind Pressure Humidity
    00:00 +32°C° 0 mm 2 mps 736 mmHg 61%
    01:00 +31°C° 0 mm 2 mps 736 mmHg 61%
    02:00 +31°C° 0 mm 2 mps 736 mmHg 61%
    03:00 +31°C° 0 mm 3 mps 736 mmHg 61%
    04:00 +31°C° 0 mm 3 mps 736 mmHg 62%
    05:00 +30°C° 0 mm 3 mps 736 mmHg 64%
    06:00 +30°C° 0 mm 3 mps 736 mmHg 65%
    07:00 +33°C° 0 mm 3 mps 737 mmHg 58%
    08:00 +35°C° 0 mm 3 mps 737 mmHg 51%
    09:00 +37°C° 0 mm 4 mps 737 mmHg 45%
    10:00 +39°C° 0 mm 3 mps 737 mmHg 38%
    11:00 +42°C° 0 mm 2 mps 737 mmHg 31%
    12:00 +46°C° 0 mm 2 mps 736 mmHg 24%
    13:00 +44°C° 0 mm 1 mps 735 mmHg 24%
    14:00 +43°C° 0 mm 1 mps 735 mmHg 24%
    15:00 +42°C° 0 mm 1 mps 734 mmHg 23%
    16:00 +41°C° 0 mm 1 mps 734 mmHg 26%
    17:00 +40°C° 0 mm 1 mps 734 mmHg 29%
    18:00 +37°C° 0 mm 1 mps 734 mmHg 32%
    19:00 +36°C° 0 mm 1 mps 734 mmHg 34%
    20:00 +36°C° 0 mm 1 mps 735 mmHg 37%
    21:00 +35°C° 0 mm 1 mps 735 mmHg 40%
    22:00 +35°C° 0.1 mm 2 mps 735 mmHg 43%
    23:00 +35°C° 0.1 mm 2 mps 735 mmHg 46%

    Tomorrow, 29 April, Saturday

    Time Temperature Precipitation Wind Pressure Humidity
    00:00 +35°C° 0.1 mm 2 mps 736 mmHg 49%
    01:00 +34°C° 0 mm 2 mps 735 mmHg 52%
    02:00 +33°C° 0 mm 3 mps 735 mmHg 54%
    03:00 +31°C° 0 mm 3 mps 735 mmHg 57%
    04:00 +31°C° 0 mm 3 mps 735 mmHg 59%
    05:00 +31°C° 0 mm 3 mps 735 mmHg 61%
    06:00 +30°C° 0 mm 3 mps 735 mmHg 63%
    07:00 +33°C° 0 mm 3 mps 735 mmHg 56%
    08:00 +35°C° 0 mm 3 mps 736 mmHg 49%
    09:00 +38°C° 0 mm 3 mps 736 mmHg 43%
    10:00 +41°C° 0 mm 2 mps 736 mmHg 36%
    11:00 +43°C° 0 mm 2 mps 736 mmHg 29%
    12:00 +46°C° 0 mm 1 mps 735 mmHg 22%
    13:00 +45°C° 0 mm 1 mps 735 mmHg 23%
    14:00 +44°C° 0 mm 1 mps 734 mmHg 23%
    15:00 +43°C° 0 mm 1 mps 733 mmHg 23%
    16:00 +42°C° 0 mm 2 mps 733 mmHg 26%
    17:00 +40°C° 0 mm 2 mps 733 mmHg 29%
    18:00 +39°C° 0 mm 2 mps 733 mmHg 32%
    19:00 +38°C° 0 mm 2 mps 733 mmHg 36%
    20:00 +37°C° 0 mm 2 mps 734 mmHg 40%
    21:00 +36°C° 0 mm 2 mps 735 mmHg 44%
    22:00 +35°C° 0.2 mm 3 mps 735 mmHg 47%
    23:00 +35°C° 0.2 mm 3 mps 735 mmHg 51%

    Day after tomorrow, 30 April, Sunday

    Time Temperature Precipitation Wind Pressure Humidity
    00:00 +34°C° 0.2 mm 4 mps 735 mmHg 54%
    01:00 +33°C° 0.2 mm 4 mps 735 mmHg 58%
    02:00 +33°C° 0.2 mm 4 mps 735 mmHg 61%
    03:00 +32°C° 0.2 mm 5 mps 734 mmHg 65%
    04:00 +32°C° 0 mm 4 mps 735 mmHg 66%
    05:00 +30°C° 0 mm 4 mps 735 mmHg 68%
    06:00 +30°C° 0 mm 3 mps 736 mmHg 70%
    07:00 +33°C° 0 mm 3 mps 736 mmHg 64%
    08:00 +34°C° 0 mm 4 mps 737 mmHg 58%
    09:00 +36°C° 0 mm 4 mps 737 mmHg 52%
    10:00 +38°C° 0 mm 4 mps 737 mmHg 46%
    11:00 +41°C° 0 mm 4 mps 736 mmHg 40%
    12:00 +43°C° 0 mm 3 mps 736 mmHg 34%
    13:00 +43°C° 0 mm 3 mps 735 mmHg 33%
    14:00 +42°C° 0 mm 2 mps 734 mmHg 32%
    15:00 +42°C° 0 mm 2 mps 733 mmHg 31%
    16:00 +41°C° 0 mm 2 mps 733 mmHg 34%
    17:00 +40°C° 0 mm 2 mps 733 mmHg 37%
    18:00 +38°C° 0 mm 2 mps 733 mmHg 39%
    19:00 +37°C° 0.2 mm 2 mps 734 mmHg 44%
    20:00 +36°C° 0.2 mm 3 mps 735 mmHg 48%
    21:00 +35°C° 0.2 mm 3 mps 735 mmHg 53%
    22:00 +35°C° 0 mm 3 mps 735 mmHg 54%
    23:00 +34°C° 0 mm 4 mps 735 mmHg 55%

    1 May, Monday

    Time Temperature Precipitation Wind Pressure Humidity
    00:00 +34°C° 0 mm 4 mps 735 mmHg 56%
    01:00 +33°C° 4.2 mm 4 mps 735 mmHg 62%
    02:00 +31°C° 4.2 mm 3 mps 735 mmHg 69%
    03:00 +29°C° 4.2 mm 3 mps 735 mmHg 75%
    04:00 +29°C° 3 mm 3 mps 735 mmHg 75%
    05:00 +29°C° 3 mm 4 mps 735 mmHg 76%
    06:00 +28°C° 3 mm 5 mps 736 mmHg 76%
    07:00 +29°C° 0 mm 5 mps 736 mmHg 72%
    08:00 +30°C° 0 mm 4 mps 736 mmHg 68%
    09:00 +31°C° 0 mm 3 mps 737 mmHg 63%
    10:00 +35°C° 0 mm 3 mps 736 mmHg 54%
    11:00 +37°C° 0 mm 2 mps 736 mmHg 45%
    12:00 +39°C° 0 mm 2 mps 735 mmHg 37%
    13:00 +40°C° 0 mm 2 mps 734 mmHg 34%
    14:00 +40°C° 0 mm 2 mps 734 mmHg 32%
    15:00 +41°C° 0 mm 1 mps 733 mmHg 30%
    16:00 +39°C° 0 mm 1 mps 733 mmHg 34%
    17:00 +37°C° 0 mm 1 mps 733 mmHg 39%
    18:00 +35°C° 0 mm 1 mps 733 mmHg 43%
    19:00 +35°C° 0 mm 1 mps 734 mmHg 45%
    20:00 +34°C° 0 mm 1 mps 734 mmHg 48%
    21:00 +33°C° 0 mm 1 mps 735 mmHg 50%
    22:00 +34°C° 0 mm 2 mps 735 mmHg 53%
    23:00 +32°C° 0 mm 2 mps 734 mmHg 55%

    2 May, Tuesday

    Time Temperature Precipitation Wind Pressure Humidity
    00:00 +33°C° 0 mm 3 mps 734 mmHg 57%
    01:00 +31°C° 0 mm 3 mps 734 mmHg 59%
    02:00 +32°C° 0 mm 4 mps 734 mmHg 61%
    03:00 +30°C° 0 mm 4 mps 734 mmHg 63%
    04:00 +30°C° 0.3 mm 3 mps 735 mmHg 66%
    05:00 +29°C° 0.3 mm 3 mps 735 mmHg 69%
    06:00 +29°C° 0.3 mm 2 mps 736 mmHg 72%
    07:00 +30°C° 0 mm 2 mps 736 mmHg 68%
    08:00 +31°C° 0 mm 3 mps 737 mmHg 63%
    09:00 +33°C° 0 mm 3 mps 737 mmHg 59%
    10:00 +35°C° 0 mm 3 mps 736 mmHg 53%
    11:00 +37°C° 0 mm 3 mps 736 mmHg 47%
    12:00 +38°C° 0 mm 4 mps 735 mmHg 42%
    13:00 +39°C° 0 mm 3 mps 734 mmHg 41%
    14:00 +39°C° 0 mm 3 mps 733 mmHg 39%
    15:00 +40°C° 0 mm 3 mps 732 mmHg 38%
    16:00 +38°C° 0 mm 3 mps 733 mmHg 42%
    17:00 +37°C° 0 mm 2 mps 733 mmHg 45%
    18:00 +36°C° 0 mm 2 mps 734 mmHg 49%
    19:00 +35°C° 0 mm 2 mps 734 mmHg 52%
    20:00 +35°C° 0 mm 2 mps 734 mmHg 55%
    21:00 +34°C° 0 mm 2 mps 735 mmHg 58%
    22:00 +32°C° 0 mm 2 mps 734 mmHg 60%
    23:00 +32°C° 0 mm 2 mps 734 mmHg 61%

    3 May, Wednesday

    Time Temperature Precipitation Wind Pressure Humidity
    00:00 +31°C° 0 mm 2 mps 734 mmHg 63%
    01:00 +31°C° 0 mm 2 mps 734 mmHg 64%
    02:00 +31°C° 0 mm 2 mps 734 mmHg 65%
    03:00 +30°C° 0 mm 2 mps 734 mmHg 65%
    04:00 +30°C° 0 mm 2 mps 734 mmHg 66%
    05:00 +30°C° 0 mm 2 mps 735 mmHg 67%
    06:00 +30°C° 0 mm 2 mps 735 mmHg 68%
    07:00 +31°C° 0 mm 3 mps 736 mmHg 62%
    08:00 +34°C° 0 mm 3 mps 736 mmHg 57%
    09:00 +36°C° 0 mm 3 mps 736 mmHg 51%
    10:00 +37°C° 0 mm 3 mps 735 mmHg 45%
    11:00 +39°C° 0 mm 3 mps 735 mmHg 39%
    12:00 +42°C° 0 mm 3 mps 734 mmHg 33%
    13:00 +42°C° 0 mm 2 mps 733 mmHg 31%
    14:00 +42°C° 0 mm 2 mps 733 mmHg 29%
    15:00 +43°C° 0 mm 1 mps 732 mmHg 27%
    16:00 +41°C° 0.1 mm 1 mps 732 mmHg 31%
    17:00 +39°C° 0.1 mm 1 mps 733 mmHg 35%
    18:00 +36°C° 0.1 mm 1 mps 733 mmHg 40%
    19:00 +36°C° 0 mm 1 mps 733 mmHg 43%
    20:00 +36°C° 0 mm 2 mps 734 mmHg 46%
    21:00 +35°C° 0 mm 2 mps 734 mmHg 49%
    22:00 +34°C° 0.6 mm 2 mps 734 mmHg 53%
    23:00 +32°C° 0.6 mm 2 mps 734 mmHg 58%
    Show more